OBJECT P, 61907

Orbit data source: Space-Track

You're viewing an Uncataloged Satellite

Recently launched and/or uncataloged satellites may have evolving metadata. Metadata may include but not limited to: Owner, Maufacturer, Bus, Motor, and Mission.

OBJECT P, 61907 is a Chinese satellite in SSO that was launched on Mon, 11 Nov 2024 UTC via a LIJIAN-1 launch vehicle from the Jiuquan Satellite Launch Center, China (JSC). Unknown objects in Earth's orbit typically refer to objects detected orbiting the Earth but have not yet been identified or cataloged. These objects could be anything from previously untracked satellites, spent rocket stages, debris from satellite collisions, or even natural meteoroids temporarily captured by Earth's gravity.

Loading next visibility...
Identifier
61907, 2024-205P
Orbit
SSO
Country
Flag of CNCN / PRC
Related business
None
Manufacturer
Unknown
Mission
Operational Defense Technology
Bus & Motor
Unknown
Mass
Unknown
Launch date (UTC)
2024-11-11 (1 year ago)
Launch vehicle
LIJIAN-1
Launch site
Jiuquan Satellite Launch Center, China (JSC)
Object type
Unknown
Shape & HBR
Box + 2 Pan, 2.5 m
Radar Cross Section
4.795 m², Medium (>0.1 m² and < 1m²)

Expand to show TLE details & history
Last TLE update: 6 hours ago

TLE from 6 hours ago
0 OBJECT P
1 61907U 24205P   26127.64128488  .00000524  00000-0  29974-4 0  9991
2 61907  97.4137 200.9791 0011783 192.0240 168.0714 15.16838256 82183
Epoch: 2026-05-07T15:23Z
TLE epoch observation values (Epoch: 2026-05-07T15:23:27.013Z)
Latitude
-0.00002°
Longitude
104.63204°
Altitude
526.439 km
Speed
7.595 km/s
True Right ascension
13h 23m 54s
True Declination
0° 00' 00"
Sunlit
Object was in full shadow at epoch
Visualization orbit readout
Latitude
Unknown
Longitude
Unknown
Altitude
Unknown
Speed
Unknown
Apparent Right ascension
Unknown
Apparent Declination
Unknown
Sunlit
N/A
Visualization observer readout
Local Sidereal Time
05:17:19
Azimuth
Unknown
Elevation
Unknown
Doppler factor
Unknown
Orbital elements
Apogee altitude
520.493 km
Perigee altitude
504.255 km
Semi-major axis
6,890.511 km
Eccentricity
0.00118
Inclination
97.4137°
RAAN
200.9791°
Arg. of periapsis
192.024°
True anomaly
168.09927°
Mean anomaly
168.0714°
Eccentric anomaly
168.08534°
Mean motion
3.7946 °/min
Orbital period
94.87 mins
BSTAR
0.000029974
Loading maneuver chart data...
Computing Atmospheric mass density...
Loading historical data...
Loading historical data...
Loading historical data...
Loading historical data...
Loading historical data...
Loading historical data...
Loading historical data...

Documentation

Showing up to 5 results
|